Location: Unspecified
(0.0000°N, 0.0000°E)
Time: 16:46:41
(UTC+00:00)

Envisat - Pass Details

Date: 15 March 2019
Orbit: 764 x 766 km, 98.2° (Epoch: 23 May)

Event Time Altitude Azimuth Distance (km) Brightness Sun altitude
Rises 19:24:25 0° 179° (S) 3,228 6.3 -18.9°
Reaches altitude 10° 19:26:48 10° 184° (S) 2,300 5.5 -19.5°
Maximum altitude 19:31:40 48° 258° (WSW) 989 4.0 -20.7°
Drops below altitude 10° 19:36:31 10° 332° (NNW) 2,292 5.8 -21.9°
Sets 19:38:53 0° 338° (NNW) 3,215 6.5 -22.5°
